User: anonymous   Login
Location: Unspecified
(0.0000°N, 0.0000°E)
Time: 18:56:58
(UTC+00:00)
Language:

Informator 1 - Orbit

View from above orbital plane
View from above orbital plane
View from above satellite
View from above satellite

Ground track
Ground track

The orbit data is extracted from the following two-line orbital elements,

1 21087U 91006A   18016.15121316  .00000060  00000-0  46918-4 0  9998
2 21087  82.9422 243.4115 0035169 174.5355 298.4825 13.75257845353276
Epoch (UTC): 16 January 2018 03:37:44
Eccentricity: 0.0035169
inclination: 82.9422°
perigee height: 955 km
apogee height: 1006 km
right ascension of ascending node: 243.4115°
argument of perigee: 174.5355°
revolutions per day: 13.75257845
mean anomaly at epoch: 298.4825°
orbit number at epoch: 35327

The dashed part of the orbit path shows where the satellite is in the earth's shadow,  

DLR